Find Starlink 32125

NORAD ID: 60260 Int'l Des: 2024-131 Owner: SPXS Country: US Constellation: starlink operational
LEOCIRCULAR

現在のビュー

3D地球を読み込み中...

About Starlink 32125

Starlink 32125 (NORAD 60260) is a starlink constellation satellite (v2 mini) launched Jul 27, 2024 by SPXS of US. It operates in LEO, CIRCULAR orbit with a mass of 730.00 kg.

次回通過

Passes for default location (London). Set your location on the main map for personalized predictions.

高度履歴

Loading altitude history...

軌道要素

1 60260U 24131F 26236.35657088 -.00000258 00000-0 35124-5 0 9992
2 60260 53.1615 352.6173 0001169 88.6649 271.4488 15.34383766117405
Epoch: Aug 24, 2026 • Age: 28 hours

現在のステータス

高度 466.1 km
遠地点 / 近地点 N/A
速度 7.63 km/s
衛星直下点 -11.68°S, 175°E
打ち上げ日 Jul 27, 2024
運用期間 2 years
タイプ internet

技術仕様

分類 Payload
質量 730.00 kg
乾燥質量 700.00 kg
総質量 730.00 kg
長さ 0.30 m
直径 4.10 m
スパン 29.00 m
形状 Box + pan
製造者 SPXS
バスタイプ Starlink V2M
フェーズステータス In Orbit
所有者/国 SPXS/US

Most Searched